Погода в Буйничах

Беларусь     53°51′04″N   30°15′48″E
темп.,
°C
ветер,
м/с
пор.,
м/с
влажн.,
%
обл.,
%
осадки,
мм/ч
давл.,
гПа
погр.,
м
12 апреля, пн
пн1200:00+8ююв37702 0.0 102997
03:00+6юв35740 0.0 102974
06:00+5юв35780 0.0 102983
09:00+9вюв47640 0.0 1028310
12:00+14вюв57455 0.0 10261095
15:00+15юв5635100 0.0 10241293
18:00+12юв6763100 0.0 1023622
21:00+9юв51086100 0.0 1024443
13 апреля, вт
вт1300:00+9ююв2693100 0.1 1023294
03:00+9юв2292100 0.2 102260
06:00+8св0092100 0.0 102210
09:00+10в2387100 0.0 1021183
12:00+11в2391100 0.0 1021187
15:00+16всв1369100 0.4 1019764
18:00+13юв4784100 0.8 1018226
21:00+12юв369083 0.9 1018157
14 апреля, ср
ср1400:00+11юв379196 0.0 1017207
03:00+10ююв4895100 0.1 1017313
06:00+9ююв4895100 0.0 1016361
09:00+9ююв4893100 0.1 1017429
12:00+11ююв5880100 0.0 1017596
15:00+15ю465962 0.0 10161383
18:00+13юв2471100 0.4 1015307
21:00+11всв2277100 0.4 101510
15 апреля, чт
чт1500:00+10св2288100 0.2 101539
03:00+9с1296100 0.8 101427
06:00+8с2498100 1.1 1015125
09:00+9ссз228989 1.2 1015324
12:00+12сз337598 0.0 1015750
15:00+12сз3370100 0.1 1015801
18:00+10ссз5577100 0.0 1016524
21:00+7с4688100 0.0 1016278
16 апреля, пт
пт1600:00+6с479354 0.0 1016227
03:00+6с4896100 0.0 1016234
06:00+8ссв51195100 0.3 1016467
09:00+8св71291100 0.9 1017550
12:00+8св71385100 0.4 1018664
15:00+9св81282100 0.4 1019813
18:00+6св91582100 0.0 1021778
21:00+7св81669100 0.0 10231063